Regional Weather Roundup
Issued by NWS Boston, MA

Home | Current Version | Previous Version | Text Only | Print | Product List | Glossary On
Versions: 1 2 3 4 5 6 7 8 9 10 11 12 13 14 15 16 17 18 19 20 21 22 23 24 25 26 27
000
ASUS41 KBOX 051510
RWRBOX

REGIONAL WEATHER ROUNDUP
NATIONAL WEATHER SERVICE TAUNTON MA
1000 AM EST MON DEC 05 2016

NOTE:  "FAIR" INDICATES FEW OR NO CLOUDS BELOW 12,000 FEET WITH NO
SIGNIFICANT WEATHER AND/OR OBSTRUCTIONS TO VISIBILITY.

MAZALL-051600-
EASTERN MASSACHUSETTS

CITY           SKY/WX    TMP DP  RH WIND       PRES   REMARKS
BOSTON         LGT SNOW  34  34 100 S7        30.04F FOG     WCI  28
BEVERLY        LGT SNOW  32  31  96 NE3       30.03F VSB 3/4
LAWRENCE       LGT SNOW  31  29  92 E3        30.05F VSB 1
BEDFORD        LGT SNOW  30  27  88 E3        30.01F VSB 3/4
BLUE HILL        N/A     31  30  96 SE12      29.98F WCI  22
NORWOOD        LGT SNOW  33  30  88 CALM      30.02F FOG
MARSHFIELD     CLOUDY    39  36  87 S8        30.02F
PLYMOUTH       CLOUDY    36  34  92 SE7       30.03F FOG     WCI  30
TAUNTON        LGT RAIN  36  34  92 VRB5      30.02S FOG
NEW BEDFORD    LGT RAIN  38  37  97 CALM      30.01F FOG
$$

MAZALL-051600-
CAPE COD AND THE ISLANDS

CITY           SKY/WX    TMP DP  RH WIND       PRES   REMARKS
FALMOUTH         N/A    N/A N/A N/A MISG        N/A
HYANNIS        CLOUDY    39  34  82 SE5       30.02F
CHATHAM        CLOUDY    40  33  76 SE6       30.05F
PROVINCETOWN   MIX PCPN  37  34  89 SE7       30.05F WCI  32
NANTUCKET      CLOUDY    42  33  70 SE12      30.04F
MARTHAS VNYRD  LGT RAIN  42  37  82 SE12      30.02F
$$

MAZALL-051600-
CENTRAL AND WESTERN MASSACHUSETTS

CITY           SKY/WX    TMP DP  RH WIND       PRES   REMARKS
WORCESTER      LGT SNOW  28  26  92 E5        29.97S VSB 1   WCI  23
FITCHBURG      LGT SNOW  29  25  85 CALM      30.02S VSB 3/4
ORANGE         LGT SNOW  29  28  96 CALM      29.98F VSB 1
SPRINGFIELD    NOT AVBL
WESTFIELD      LGT SNOW  29  27  92 CALM      29.99F FOG
NORTH ADAMS    LGT SNOW  32  28  85 E6        29.93F FOG     WCI  26
PITTSFIELD     CLOUDY    31  28  89 CALM      29.92S
$$

RIZALL-051600-
RHODE ISLAND

CITY           SKY/WX    TMP DP  RH WIND       PRES   REMARKS
PROVIDENCE     LGT RAIN  33  31  92 N3        30.03S FOG
NEWPORT        LGT RAIN  38  38 100 CALM      30.00F FOG
BLOCK ISLAND   LGT RAIN  45  42  89 SW14      30.01S
SMITHFIELD     MIX PCPN  33  30  88 CALM      30.00F FOG
WESTERLY       LGT RAIN  35  33  92 N5        30.02S FOG     WCI  31
$$

CTZALL-051600-
CONNECTICUT

CITY           SKY/WX    TMP DP  RH WIND       PRES   REMARKS
BRADLEY INTL   LGT SNOW  30  27  88 CALM      30.00F FOG
HARTFORD       MIX PCPN  32  31  96 CALM      30.01F FOG
BRIDGEPORT     CLOUDY    44  38  79 N3        30.00S HAZE
GROTON         LGT RAIN  39  37  92 N5        30.01S FOG
NEW HAVEN      CLOUDY    35  34  96 NE7       30.00F FOG     WCI  29
CHESTER        LGT RAIN  34  34 100 CALM      29.99F
MERIDEN        LGT RAIN  33  30  88 CALM      30.01F FOG
WILLIMANTIC    LGT RAIN  34  32  92 CALM      30.01F FOG
OXFORD         FOG       36  30  80 S5        29.98F VSB 1   WCI  32
$$

MEZ002-015-021-024-NHZ003-005-008-011-012-014-VTZ005-008-051600-
NORTHERN NEW ENGLAND

CITY           SKY/WX    TMP DP  RH WIND       PRES   REMARKS
PORTLAND ME    LGT SNOW  28  22  78 N5        30.05F WCI  23
BANGOR ME      CLOUDY    22  19  89 CALM      30.08S
CONCORD NH     SNOW      28  25  88 CALM      30.01F VSB 1/2
MANCHESTER NH  LGT SNOW  30  26  85 CALM      30.01F VSB 3/4
NASHUA NH      LGT SNOW  30  27  88 CALM      30.03F VSB 3/4
PORTSMOUTH NH  NOT AVBL
JAFFREY NH     SNOW      29  25  85 CALM      29.96F VSB 1/2
KEENE NH       LGT SNOW  30  28  92 CALM      29.98F FOG
BURLINGTON VT  LGT SNOW  29  27  92 CALM      29.90F VSB 1
MT. WASHINGTON SNOW      14  14 100 SW31G40     N/A  VSB 0   WCI  -7
$$

NYZ052-076-051600-
EASTERN NEW YORK

CITY           SKY/WX    TMP DP  RH WIND       PRES   REMARKS
ALBANY         FLURRIES  32  29  88 S9        29.93F WCI  24
NEW YORK CITY  CLOUDY    45  39  79 SW14G23   30.00R
$$

ANZALL-051600-
MARINE OBSERVATIONS

STATION/POSITION TIME  TEMP    WIND        PRES    VSBY  WAVE
                       AIR SEA DIR/SP/G                  HT/PER
                 (UTC) (F)     (DEG/KT/KT) (MB)    (MI)  (FT/S)
BOSTON BUOY      1450   40 50  140/ 14/ 16 1015.8F         2/ 5
BUZZARDS BAY     1400   44     180/ 13/ 15 1016.9F
NANTUCKET SOUND  NOT AVBL
MASS BAY-STELLWA 1404   40 49  150/  8/ 12 1017.0F  1 7/8  2/ 8
ISLE OF SHOALS   1400   33     250/  1/  2 1017.5F
S OF BLOCK IS    1455      55                N/A           3/ 4
$$

......................KEY.........................
  SKY/WX - SKY CONDITION/PRESENT WEATHER
  TMP    - TEMPERATURE IN FAHRENHEIT
  DWPT   - DEWPOINT IN FAHRENHEIT
  RH     - RELATIVE HUMIDITY IN PERCENT
  WIND   - DIRECTION AND SPEED IN MPH
  PRES   - MEAN SEA LEVEL PRESSURE IN INCHES OF HG
  WCI    - WIND CHILL INDEX
  VSB    - VISIBILITY IN MILES
  HX     - HEAT INDEX
  TC     - TEMPERATURE IN CELSIUS
  VRB    - VARIABLE WIND DIRECTION
  N/A    - NOT AVAILABLE




USA.gov is the U.S. government's official web portal to all federal, state and local government web resources and services.